CAPE
740 1353 983 1052 1161 1014 519 574 642 312 583 919 757 556 584 411 206 281 640 917 930 1135 1187 913 824 447 341 293 387 572 829 783 640 382 57 2 1005 1018 667 323 265 445 308
1066 1549 1303 1566 1225 1137 921 390 215 0 33 930 1074 836 503 484 445 151 312 949 804 928 1160 1188 1140 1111 760 478 326 539 980 904 1199 912 766 380 26 156 658 277 197 272 749
1255 1099 1002 1340 1247 1144 1082 286 194 60 161 725 866 998 753 487 424 316 113 346 1180 937 847 1047 1029 1098 1110 1006 631 573 807 768 467 546 669 840 501 242 138 144 227 281 223
1617 1863 1365 883 975 1211 1511 886 340 383 633 1001 805 808 806 713 350 265 230 112 161 1132 1095 1109 1025 668 619 663 939 993 761 622 433 322 126 272 720 587 429 459 499 465 394
1786 1223 1237 1202 1242 1237 1072 914 1066 863 726 1089 471 42 0 26 588 677 451 351 195 85 436 1002 1067 960 639 418 691 836 954 776 579 472 325 182 193 271 480 493 380 524 619
2023 1878 1744 1662 1567 1318 1004 762 428 271 78 445 607 371 5 182 846 676 382 222 207 213 225 723 1175 1222 968 582 437 548 596 943 884 614 575 556 451 344 168 144 148 157 178
1180 1814 1672 1546 1390 1223 1046 848 360 238 75 70 91 270 155 116 176 276 787 710 431 195 289 262 627 870 972 1092 782 651 825 902 1043 993 768 732 720 646 581 458 322 269 264
1728 2053 1799 1598 1375 1377 1228 969 678 353 70 250 103 264 193 215 167 389 492 672 796 685 462 273 317 561 743 845 1036 913 1009 1050 866 868 974 975 768 703 672 661 633 556 478
1820 1974 1865 1812 1556 1443 1172 894 510 340 369 386 561 302 189 122 201 107 144 153 279 747 554 410 323 435 684 832 894 1036 1178 1241 1087 962 734 909 915 757 713 723 693 665 671
1803 1877 2027 1964 1693 1358 1191 816 1020 892 729 759 756 486 247 244 159 118 68 44 4 6 232 635 445 355 327 631 692 1108 1135 982 940 1230 1086 728 757 729 614 682 734 737 712
0 27 46 70 132 177 484 697 708 765 678 475 482 415 401 293 209 156 53 23 79 138 283 634 628 542 473 354 294 387 647 608 628 835 1173 992 937 1048 935 731 638 633 657
0 0 41 5 12 101 213 178 190 152 149 198 151 235 401 275 243 145 3 23 24 45 69 171 392 456 602 500 677 622 571 706 684 655 943 1093 1155 1188 1215 1132 896 676 574
0 0 2 28 20 2 1 18 74 59 31 7 6 13 36 47 106 99 75 32 35 114 63 97 185 69 29 33 162 526 900 734 725 699 661 755 854 946 1037 983 952 875 760
0 0 0 0 0 11 19 97 36 9 25 10 8 12 17 42 151 114 42 56 5 19 69 78 40 1 0 0 78 53 70 700 937 838 621 577 529 405 429 583 681 649 619
0 0 0 0 0 1 0 3 51 27 6 0 0 0 1 0 9 6 0 0 17 12 13 16 52 65 0 0 0 0 10 0 111 559 459 365 257 253 367 465 500 390 283
0 45 10 30 23 80 111 100 0 0 0 0 0 0 0 0 0 0 0 0 0 6 5 0 76 48 0 0 0 0 2 3 15 540 397 268 217 198 229 272 193 143 145
0 0 0 0 91 120 67 2 0 0 0 0 0 0 0 0 0 0 0 0 1 5 29 0 13 42 0 0 0 0 0 0 110 323 304 94 54 87 131 141 161 48 65
0 0 0 140 48 11 0 0 0 0 0 0 0 0 0 0 0 0 0 0 0 0 4 4 24 27 0 0 0 0 0 0 153 133 101 28 0 0 0 131 175 96 32
2 29 111 6 0 0 0 0 0 0 0 0 0 0 0 0 0 0 4 5 1 7 8 9 10 58 180 127 25 0 0 4 28 14 46 30 0 0 0 0 112 133 77
74 97 11 8 0 0 0 18 0 0 0 0 0 0 0 0 0 1 5 3 5 10 10 14 38 78 91 178 58 5 0 2 4 31 2 0 0 0 4 38 85 67 47
36 91 0 0 0 0 2 0 0 0 0 0 0 0 1 3 8 14 14 3 5 6 19 27 17 51 75 179 248 307 116 174 139 76 20 2 0 0 14 73 66 9 6
220 19 0 0 0 0 0 0 0 0 0 0 1 0 2 2 3 4 3 4 4 5 3 20 22 21 29 162 400 376 104 132 212 298 78 27 64 104 36 9 0 0 0
162 0 0 0 0 0 0 0 0 0 0 0 4 1 3 1 3 3 2 2 3 4 4 4 4 16 31 194 374 245 110 207 403 385 340 273 154 117 73 72 122 100 92
155 0 0 0 0 0 0 0 0 0 0 0 1 7 2 4 4 4 4 5 4 2 1 2 2 1 245 369 367 213 143 202 253 233 201 103 166 90 112 58 54 38 50
25 0 39 0 0 0 0 0 0 0 0 0 0 9 2 3 6 4 2 2 2 3 26 0 0 0 30 257 254 228 242 195 212 212 120 60 112 13 0 0 8 0 0
113 117 0 0 0 0 0 0 0 0 0 1 0 7 3 0 1 0 1 3 59 37 85 154 5 1 33 131 144 219 129 125 244 233 189 155 17 0 0 0 1 0 0
CIN
-32 -16 -9 -21 -34 -56 -45 -70 -86 -95 -56 -19 -20 -29 -37 -63 -58 -29 -35 -31 -64 -68 -74 -83 -84 -129 -140 -156 -130 -82 -35 -40 -53 -104 -236 -7 -1 0 -16 -69 -77 -34 -55
-38 -24 -20 -15 -15 -35 -52 -87 -35 -5 -93 -50 -18 -38 -46 -66 -73 -56 -38 -25 -26 -45 -56 -67 -66 -67 -83 -110 -136 -92 -33 -33 -5 -15 -23 -89 -202 -136 -23 -92 -110 -88 -3
-36 -28 -26 -20 -17 -21 -43 -73 -67 -101 -97 -63 -28 -21 -39 -45 -57 -63 -75 -39 -23 -21 -36 -50 -62 -62 -62 -79 -106 -105 -70 -61 -108 -81 -39 -9 -52 -110 -137 -130 -107 -88 -95
-36 -27 -24 -27 -18 -19 -9 -37 -48 -56 -47 -37 -31 -31 -24 -42 -71 -74 -59 -57 -38 -20 -30 -37 -49 -70 -61 -57 -53 -68 -93 -92 -110 -132 -179 -116 -31 -47 -69 -60 -52 -50 -58
-22 -20 -28 -30 -12 -12 -18 -25 -23 -31 -17 -19 -35 -132 0 -132 -46 -31 -37 -41 -53 -72 -43 -36 -31 -50 -53 -72 -59 -56 -68 -86 -97 -110 -121 -149 -138 -109 -72 -68 -81 -54 -36
-10 -14 -18 -18 -19 -20 -27 -32 -69 -74 -136 -61 -35 -56 -74 -49 -35 -80 -86 -87 -88 -64 -56 -29 -27 -41 -44 -51 -75 -71 -67 -69 -76 -92 -93 -91 -94 -104 -142 -146 -139 -134 -116
-56 -18 -23 -21 -21 -20 -29 -36 -83 -63 -131 -106 -71 -46 -72 -96 -132 -124 -78 -94 -81 -82 -57 -68 -28 -38 -39 -42 -51 -58 -67 -68 -62 -62 -74 -78 -76 -79 -81 -89 -106 -104 -102
-46 -18 -24 -27 -34 -32 -34 -35 -54 -79 -172 -83 -54 -41 -76 -117 -59 -66 -68 -79 -74 -63 -51 -78 -70 -52 -53 -45 -43 -48 -63 -61 -53 -57 -55 -70 -74 -77 -77 -79 -79 -81 -84
-22 -16 -13 -16 -23 -29 -26 -28 -45 -68 -48 -65 -42 -13 -8 -33 -57 -152 -89 -83 -113 -118 -78 -56 -71 -67 -54 -57 -54 -39 -37 -56 -46 -41 -51 -57 -66 -75 -73 -75 -75 -75 -78
-14 -10 -8 -14 -9 -16 -18 -30 -21 -22 -28 -11 -18 -42 -32 -34 -3 -96 -186 -203 -40 -41 -165 -36 -59 -50 -70 -75 -75 -58 -35 -43 -44 -43 -40 -40 -50 -68 -66 -69 -68 -68 -78
0 -214 -234 -234 -168 -126 -42 -23 -20 -5 -4 -6 -9 -13 -16 -28 -29 -7 -185 -233 -130 -133 -104 -39 -82 -42 -44 -60 -72 -83 -82 -65 -62 -49 -42 -34 -37 -43 -55 -60 -67 -67 -67
0 0 -229 -187 -260 -184 -102 -120 -77 -61 -48 -23 -23 -9 -4 -1 -3 -10 -20 -196 -168 -235 -161 -130 -64 -70 -64 -85 -56 -61 -66 -71 -61 -54 -44 -43 -31 -33 -35 -41 -46 -61 -64
0 0 -57 -291 -295 -108 -63 -240 -153 -144 -147 -31 -14 -55 -73 -23 -14 -22 -4 -24 -38 -119 -149 -187 -184 -218 -277 -91 -254 -111 -41 -63 -60 -59 -51 -72 -68 -56 -36 -38 -40 -51 -64
0 0 0 0 0 -364 -320 -159 -208 -225 -159 -13 -14 -16 -18 -77 -12 -5 -1 0 0 -10 -67 -184 -206 -28 0 0 -279 -239 -138 -52 -42 -69 -70 -75 -98 -127 -104 -65 -57 -59 -76
0 0 0 0 -44 -50 0 -178 -203 -175 -9 0 0 0 -16 0 -32 -24 0 0 -1 0 -1 -209 -207 -212 0 0 0 0 -15 0 -171 -76 -79 -82 -116 -131 -107 -92 -89 -96 -128
0 -366 -208 -338 -318 -225 -171 -168 0 0 0 0 0 0 0 0 0 0 0 0 0 -1 0 0 -122 -187 0 0 0 0 -83 -165 -135 -77 -54 -77 -94 -118 -127 -124 -148 -156 -175
0 0 0 0 -206 -170 -200 -34 0 0 0 0 0 0 0 0 0 0 0 0 -1 -3 0 0 -204 -196 0 0 0 0 0 0 -148 -36 -128 -151 -180 -151 -141 -146 -163 -193 -200
0 0 0 -152 -179 -255 0 0 0 0 0 0 0 0 0 0 0 0 0 0 0 0 -1 0 -182 -228 0 0 0 0 0 0 -184 -77 -81 -216 0 0 0 -119 -133 -164 -212
-62 -281 -172 -71 0 0 0 0 0 0 0 0 0 0 0 0 0 0 -1 -1 -2 -1 -1 0 -83 -108 -99 -78 -177 0 0 -196 -96 -151 -129 -136 0 0 0 0 -109 -119 -171
-217 -180 -174 -70 0 0 0 -12 0 0 0 0 0 0 0 -1 -1 0 0 0 -1 0 0 0 -217 -116 -68 -63 -83 -27 0 -102 -152 -177 -92 0 0 0 -135 -169 -178 -164 -230
-204 -140 0 0 0 0 -4 0 0 0 0 0 0 0 0 0 0 0 0 0 0 0 0 0 0 -181 -101 -16 0 -40 -69 -75 -128 -158 -189 -222 -65 0 -190 -150 -148 -79 -42
-122 -167 0 0 0 0 0 0 0 0 0 0 0 -3 0 0 0 0 0 0 0 0 0 -7 0 0 -173 -6 -2 -9 -24 -21 -41 -140 -221 -191 -185 -121 -158 -158 0 0 0
-116 0 0 0 0 0 0 0 0 0 0 0 0 0 0 0 0 0 0 0 0 0 0 0 -2 -53 -70 -6 -15 -16 -22 -28 -25 -60 -70 -46 -99 -78 -113 -147 -108 -117 -162
-97 0 0 0 0 0 0 0 0 0 0 0 -1 0 0 0 0 0 0 0 0 0 0 0 0 0 -9 -16 -8 -17 -22 -25 -37 -39 -43 -24 -57 -63 -82 -115 -136 -148 -196
-129 0 -93 0 0 0 0 0 0 0 0 0 0 0 0 0 0 0 0 0 0 -2 -6 0 0 0 -112 -36 -24 -9 -18 -32 -33 -32 -43 -30 -74 -40 0 0 -202 -18 0
-84 -64 0 0 0 0 0 0 0 0 0 0 0 0 0 0 0 0 0 -30 -12 -61 -46 -16 -6 -12 -96 -43 -29 -21 -35 -33 -22 -18 -32 -18 -37 0 0 -1 -9 0 0
Wind_Speed
11 9 8 9 9 7 8 8 7 18 22 24 22 25 28 30 26 20 9 1 2 3 3 3 5 6 7 7 10 10 9 9 9 9 10 11 11 12 11 12 12 12 12
9 9 9 8 5 6 7 8 7 13 20 25 26 21 27 31 32 28 19 9 2 1 1 1 4 5 6 6 7 10 10 9 9 9 9 9 10 10 11 11 11 11 12
8 7 5 3 3 2 5 3 4 6 3 4 21 21 19 30 32 33 30 15 10 4 3 3 3 7 8 8 7 8 9 10 11 10 11 11 10 10 10 10 10 11 12
7 7 5 3 2 2 5 4 5 2 1 4 18 28 34 7 24 33 33 35 21 16 11 5 5 7 9 8 9 10 9 9 10 10 9 10 11 11 10 9 10 10 11
7 3 3 2 2 1 2 7 1 7 9 11 23 33 39 38 18 30 34 34 36 25 18 11 10 11 9 11 11 11 11 11 11 11 11 10 12 12 11 10 10 10 11
6 6 5 5 5 4 5 7 6 8 12 12 12 15 11 30 8 11 36 39 37 31 21 14 12 9 13 14 13 14 14 13 13 11 11 11 12 12 12 11 11 11 11
4 5 4 6 5 6 5 6 8 8 8 13 13 8 10 8 37 35 12 41 38 34 28 23 18 15 14 17 18 17 16 16 15 14 14 14 15 14 12 12 12 12 11
6 6 6 6 8 11 10 10 13 13 11 13 12 18 19 17 18 20 18 11 18 31 37 30 23 19 16 15 13 19 19 19 17 19 20 16 15 16 14 13 13 13 13
10 10 9 10 12 15 16 15 17 16 15 18 13 15 18 19 8 11 29 34 34 34 40 41 31 26 20 18 16 14 21 20 19 20 21 20 18 17 17 15 15 15 14
14 13 12 13 15 19 20 21 20 19 18 19 22 14 12 14 16 17 18 29 32 33 44 39 41 43 29 24 22 16 15 17 17 18 19 21 20 20 18 18 17 16 14
23 25 27 27 26 25 24 24 25 25 23 24 24 25 22 19 17 17 18 32 22 14 33 33 35 52 38 29 32 33 18 18 18 17 19 20 20 18 16 17 17 16 14
24 26 27 27 27 26 26 27 27 28 27 27 28 26 25 27 26 24 26 26 40 41 31 28 24 27 34 36 36 39 35 22 19 18 18 17 17 16 16 15 14 14 15
26 28 29 30 30 30 29 28 27 27 28 28 28 29 29 29 27 27 28 31 38 42 42 45 33 27 33 35 39 42 47 33 22 20 19 18 17 17 16 15 13 13 13
28 29 31 32 33 31 30 28 27 27 26 27 29 30 31 30 29 30 31 37 43 41 41 34 35 29 30 31 33 38 40 41 46 20 21 19 17 15 16 16 14 13 13
28 30 31 32 32 31 30 29 29 29 29 29 30 31 32 33 33 34 35 36 39 49 47 40 39 38 34 33 36 46 52 45 44 50 23 17 16 16 15 16 15 14 13
28 31 33 33 32 31 31 30 31 30 30 30 31 35 35 36 37 37 39 41 38 41 51 41 39 35 35 33 29 31 46 51 47 46 48 29 17 16 14 15 17 14 13
30 32 32 33 33 33 32 33 32 32 32 35 37 39 40 39 40 40 39 40 41 41 46 53 42 36 30 27 26 22 27 43 39 38 36 41 39 36 31 21 16 13 13
29 31 33 34 35 34 34 34 35 34 37 42 45 46 47 46 46 45 45 44 43 44 46 50 44 40 36 30 27 31 27 29 36 36 42 36 37 39 45 43 22 16 15
29 31 32 35 35 35 35 35 36 39 42 46 48 49 47 50 51 48 45 46 44 47 45 45 46 41 42 36 36 34 34 33 30 30 46 44 46 49 46 47 36 23 20
31 31 33 33 35 36 36 35 40 45 50 49 48 45 49 53 47 45 45 46 47 44 42 44 46 43 40 36 35 36 34 33 31 29 28 36 45 47 47 46 46 45 42
29 29 31 32 33 33 34 40 44 48 50 52 46 48 50 45 33 34 41 38 38 38 38 37 40 41 40 36 32 30 32 33 29 26 21 21 18 44 46 46 40 46 40
26 28 30 30 32 33 36 40 45 50 51 50 54 50 43 35 22 18 17 19 22 31 36 36 36 40 41 36 32 30 31 29 30 21 21 31 24 45 43 37 37 48 48
24 27 27 29 31 33 38 41 47 48 49 50 51 54 45 34 18 18 15 18 18 22 23 29 36 38 39 35 32 32 34 30 27 22 15 26 27 40 39 35 36 40 40
24 25 27 29 30 33 37 41 49 47 50 52 52 53 46 43 19 17 19 16 18 12 15 19 24 46 37 35 33 32 30 28 24 20 19 28 30 36 36 37 35 39 35
22 23 27 28 29 33 36 44 48 49 52 51 58 50 44 40 36 3 2 8 13 6 7 22 38 45 45 38 33 26 26 25 26 28 28 32 33 35 36 38 39 37 35
21 24 27 28 25 32 37 45 46 47 49 49 55 48 42 37 33 22 4 4 21 26 27 23 35 41 40 31 26 23 24 26 25 27 26 30 31 31 31 29 32 26 29
Wind_Direction
121 117 101 95 80 89 62 83 77 334 314 306 319 300 284 278 292 307 327 289 17 128 92 111 133 135 139 145 155 155 148 144 140 140 139 144 143 147 136 136 136 135 138
130 96 73 65 107 84 69 75 45 8 318 309 304 314 296 279 278 288 307 311 299 204 305 121 163 163 159 155 158 164 166 161 160 158 155 150 151 147 146 145 145 148 153
117 105 88 100 108 89 59 70 42 52 59 356 322 316 316 286 281 276 281 311 305 277 278 226 197 184 181 176 169 171 174 174 171 168 171 168 162 158 155 153 153 155 159
134 104 85 116 168 200 20 16 4 21 22 1 329 306 285 259 290 275 276 273 299 302 300 253 230 206 198 196 192 186 183 182 180 177 174 175 175 172 167 164 164 164 166
130 118 77 61 46 283 311 22 88 6 355 348 328 309 290 275 231 289 278 278 277 292 297 287 223 213 214 208 205 201 194 192 188 186 184 180 182 183 182 179 177 177 178
92 65 42 31 12 340 345 340 341 352 353 345 352 341 324 242 295 298 279 268 277 287 290 289 284 253 218 212 211 209 205 202 199 196 193 190 188 189 189 187 186 183 181
77 38 17 8 353 349 334 319 335 328 324 351 339 335 336 268 292 289 256 266 278 283 287 287 286 285 284 217 216 215 215 209 207 205 199 197 196 195 194 192 190 189 187
58 35 25 11 5 4 357 348 345 346 345 346 341 340 335 275 332 319 308 262 289 290 280 282 283 283 280 282 230 219 220 217 217 213 210 206 203 201 201 199 198 198 200
38 26 15 6 4 359 355 353 350 346 340 342 340 337 338 336 283 324 279 301 297 287 278 274 279 280 280 282 281 231 220 221 222 218 216 214 211 207 206 207 207 207 208
21 12 7 357 354 355 352 349 347 342 339 334 335 329 313 315 315 269 314 304 301 288 264 282 276 271 279 282 284 270 248 234 235 228 223 219 217 214 212 212 212 212 213
9 9 4 1 357 353 349 346 343 340 337 332 330 329 327 320 311 304 267 305 315 305 290 290 289 259 273 282 283 280 265 242 241 240 228 224 222 223 223 218 216 216 215
4 1 360 357 355 351 348 343 340 337 334 332 330 327 323 320 318 312 307 305 299 285 295 296 290 293 284 286 284 277 279 271 254 250 242 233 234 235 233 230 226 225 223
357 356 355 355 351 348 344 342 341 338 336 333 331 327 324 321 318 313 307 303 300 296 295 287 289 293 287 291 285 280 268 277 267 258 251 250 237 251 251 254 248 240 238
352 353 351 348 347 346 345 345 342 339 338 335 332 329 325 322 319 315 309 306 300 296 295 293 294 293 286 291 287 283 287 272 260 260 264 262 258 251 255 258 262 262 249
350 350 349 348 347 346 344 343 341 338 336 334 330 327 323 319 315 310 306 303 300 293 291 291 290 288 289 286 280 271 266 269 271 251 240 242 250 261 246 239 258 263 249
348 347 346 347 346 344 342 341 337 336 334 331 328 324 320 315 311 306 301 298 295 292 288 291 290 288 286 286 285 274 272 263 271 273 257 270 244 257 245 241 274 263 235
346 346 347 346 345 343 342 339 337 334 331 328 326 321 316 313 308 304 299 295 291 291 286 283 286 286 283 278 278 269 267 272 275 281 271 262 264 264 275 275 269 250 243
346 346 345 345 344 343 341 339 336 334 332 327 323 320 315 311 305 301 295 290 287 286 284 281 281 281 280 277 274 278 280 268 271 272 265 265 270 275 260 238 220 234 231
343 344 346 345 344 343 341 339 338 335 331 327 323 319 316 311 302 299 292 288 285 285 280 275 277 277 275 278 278 279 278 269 273 265 265 267 267 271 261 246 225 220 222
341 345 345 345 345 344 343 343 339 335 331 328 324 319 316 311 301 297 293 286 285 282 278 273 271 272 271 273 275 275 278 277 278 270 274 273 260 258 253 249 250 238 234
341 346 346 347 347 348 348 343 341 338 336 335 330 325 320 317 308 299 292 288 284 281 278 274 269 266 266 266 270 272 273 277 279 275 261 276 262 257 249 259 273 248 233
344 345 347 348 348 350 349 346 343 341 339 337 334 334 328 327 316 297 275 258 275 281 277 275 268 263 263 263 266 267 269 271 273 273 270 264 274 245 260 279 277 261 251
344 344 347 349 350 351 350 349 346 345 345 344 341 331 330 330 330 325 306 295 271 269 249 266 268 262 260 260 261 263 263 267 267 274 265 270 272 258 273 281 274 259 261
343 346 348 350 352 353 353 352 349 351 349 349 348 333 311 317 329 322 319 316 304 240 269 256 240 245 253 256 259 261 264 271 270 272 276 277 276 274 278 277 281 271 273
346 346 347 350 352 354 357 352 353 355 354 355 343 338 326 316 298 302 338 226 224 235 231 202 204 213 233 249 257 261 262 263 267 269 276 276 278 279 283 279 274 274 270
343 348 350 351 357 356 358 355 357 359 1 2 347 339 337 326 316 332 163 171 243 233 231 265 203 212 236 253 260 261 268 270 272 277 281 279 280 287 290 291 288 292 273